CALSPHERE 2

Last updated on Fri Dec 29 2023 00:03:35 GMT+0000 (Coordinated Universal Time)

1 00902U 64063E 23361.70297569 .00000090 00000+0 12303-3 0 9990 2 00902 90.2118 55.2553 0017383 332.8320 151.7697 13.52776223734246
UTC large
Height (km)
Speed (km/s)
/
Latitude / Longitude
Inclination (degrees)
Orbital Period (minutes)
Azimuth
Elevation
Range (km)
Doppler Factor

Next 0 passes for location: London (51.5072 / 0.1276)

Sorry there are no passes over London.
CALSPHERE 2